Find STARLINK-36760

NORAD ID: 70589 Constellation: starlink operational
LEOCIRCULAR

实时位置

正在加载3D地球...

关于 STARLINK-36760

正在加载描述...

即将过境

Passes for default location (London). Set your location on the main map for personalized predictions.

高度历史

Loading altitude history...

两行轨道根数

1 70589C 26099F 26122.92479167 -.00452760 00000+0 -55974-3 0 1229
2 70589 53.1633 22.3795 0004415 288.9286 23.5461 16.07315062 10
Epoch: May 2, 2026 • Age: 31 hours